Weather History for KCDS - November, 2012

Change the Weather History Date:

Thursday, November 29, 2012

  Actual Average Record
Temperature  
Mean Temperature 59 °F 46 °F  
Max Temperature 78 °F 59 °F 84 °F (2014)
Min Temperature 40 °F 33 °F 13 °F (1976)
Degree Days  
Heating Degree Days 6 19  
Month to date heating degree days 273 389  
Since 1 July heating degree days 452 541  
Cooling Degree Days 0 0  
Month to date cooling degree days 32 7  
Year to date cooling degree days 2798 2207  
Growing Degree Days 9 (Base 50)    
Moisture  
Dew Point 39 °F    
Average Humidity 53    
Maximum Humidity 82    
Minimum Humidity 24    
Precipitation  
Precipitation 0.00 in 0.04 in 2.00 in (1909)
Month to date precipitation 0.08 1.22  
Year to date precipitation 16.82 22.98  
Snow  
Snow 0.00 in 0.10 in - ()
Month to date snowfall 0.0 0.7  
Since 1 July snowfall 0.0 0.9  
Since 1 September snowfall 0.0 0.9  
Snow Depth -    
Sea Level Pressure  
Sea Level Pressure 30.01 in    
Wind  
Wind Speed 10 mph (South)    
Max Wind Speed 20 mph    
Max Gust Speed 23 mph    
Visibility 10 miles    
Events      
T = Trace of Precipitation, MM = Missing Value Source: NWS Daily Summary

Daily Weather History Graph

Daily Weather History Graph

Search for Another Location

Airport or City:

Trip Planner

Search our weather history database for the weather conditions in past years. The results will help you decide how hot, cold, wet, or windy it might be!

Date:

Astronomy

Nov. 29, 2012 Rise Set
Actual Time 7:28 AM CST 5:31 PM CST
Civil Twilight 7:00 AM CST 5:58 PM CST
Nautical Twilight 6:29 AM CST 6:29 PM CST
Astronomical Twilight 5:59 AM CST 6:59 PM CST
Moon 6:35 PM CST (11/29) 8:15 AM CST (11/29)
Length of Visible Light 10h 57m
Length of Day
10h 02m
Full, 99% of the Moon is Illuminated
Nov 29
Full
Dec 6
Last Quarter
Dec 13
New
Dec 19
First Quarter
Dec 28
Full

Hourly Weather History & Observations

Time (CST) Temp. Windchill Dew Point Humidity Pressure Visibility Wind Dir Wind Speed Gust Speed Precip Events Conditions
12:53 AM 50.0 °F - 37.9 °F 63% 30.10 in 10.0 mi South 11.5 mph - N/A   Clear
1:53 AM 51.1 °F - 39.0 °F 63% 30.08 in 10.0 mi SSW 13.8 mph - N/A   Clear
2:53 AM 52.0 °F - 39.9 °F 63% 30.08 in 10.0 mi SSW 9.2 mph - N/A   Clear
3:53 AM 48.0 °F - 37.9 °F 68% 30.08 in 10.0 mi SW 5.8 mph - N/A   Clear
4:53 AM 46.0 °F 43.1 °F 37.9 °F 73% 30.07 in 10.0 mi South 5.8 mph - N/A   Clear
5:53 AM 45.0 °F 40.1 °F 37.0 °F 74% 30.07 in 10.0 mi South 9.2 mph - N/A   Clear
6:53 AM 41.0 °F 35.8 °F 36.0 °F 82% 30.06 in 10.0 mi SSE 8.1 mph - N/A   Clear
7:53 AM 42.1 °F 37.1 °F 37.0 °F 82% 30.06 in 10.0 mi South 8.1 mph - N/A   Clear
8:53 AM 50.0 °F - 39.9 °F 68% 30.06 in 10.0 mi South 10.4 mph - N/A   Clear
9:53 AM 57.9 °F - 41.0 °F 53% 30.06 in 9.0 mi SW 13.8 mph - N/A   Clear
10:53 AM 64.0 °F - 39.9 °F 41% 30.03 in 10.0 mi SW 12.7 mph - N/A   Clear
11:53 AM 68.0 °F - 39.9 °F 36% 30.01 in 10.0 mi SSW 9.2 mph - N/A   Clear
12:53 PM 72.0 °F - 37.0 °F 28% 29.98 in 10.0 mi WSW 11.5 mph 19.6 mph N/A   Clear
1:53 PM 75.9 °F - 37.9 °F 25% 29.94 in 10.0 mi South 10.4 mph - N/A   Clear
2:53 PM 77.0 °F - 37.9 °F 24% 29.91 in 10.0 mi South 12.7 mph - N/A   Clear
3:53 PM 75.9 °F - 39.0 °F 26% 29.92 in 10.0 mi SSE 15.0 mph - N/A   Clear
4:53 PM 73.0 °F - 39.0 °F 29% 29.91 in 10.0 mi South 11.5 mph - N/A   Clear
5:53 PM 66.9 °F - 37.9 °F 34% 29.93 in 10.0 mi SSE 9.2 mph - N/A   Clear
6:53 PM 62.1 °F - 39.0 °F 43% 29.96 in 10.0 mi SSE 9.2 mph - N/A   Clear
7:53 PM 57.9 °F - 37.9 °F 47% 29.97 in 10.0 mi SSE 9.2 mph - N/A   Clear
8:53 PM 59.0 °F - 39.9 °F 49% 29.96 in 10.0 mi South 10.4 mph - N/A   Clear
9:53 PM 54.0 °F - 39.9 °F 59% 29.96 in 10.0 mi South 10.4 mph - N/A   Clear
10:53 PM 54.0 °F - 42.1 °F 64% 29.96 in 10.0 mi South 11.5 mph - N/A   Clear
11:53 PM 48.9 °F - 39.9 °F 71% 29.97 in 10.0 mi South 9.2 mph - N/A   Clear